Time,TemperatureF,DewpointF,PressureIn,WindDirection,WindDirectionDegrees,WindSpeedMPH,WindSpeedGustMPH,Humidity,HourlyPrecipIn,Conditions,Clouds,dailyrainin,SoftwareType,DateUTC
2013-05-22 00:01:00,67.1,63.1,29.85,SSE,148,0.0,0.0,87,0.00,,---,0.00,VWS V14.01,2013-05-22 04:01:00,
2013-05-22 00:02:00,67.1,63.1,29.85,SSE,148,0.0,0.0,87,0.00,,---,0.00,VWS V14.01,2013-05-22 04:02:00,
2013-05-22 00:05:00,67.1,63.1,29.86,SSE,148,0.0,0.0,87,0.00,,---,0.00,VWS V14.01,2013-05-22 04:05:00,
2013-05-22 00:06:00,67.1,63.1,29.86,SSE,148,0.0,0.0,87,0.00,,---,0.00,VWS V14.01,2013-05-22 04:06:00,
2013-05-22 00:11:00,66.9,62.9,29.85,SSE,148,0.0,0.0,87,0.00,,---,0.00,VWS V14.01,2013-05-22 04:11:00,
2013-05-22 00:14:00,66.8,62.8,29.85,SSE,148,0.0,0.0,87,0.00,,---,0.00,VWS V14.01,2013-05-22 04:14:00,
2013-05-22 00:19:00,66.6,62.6,29.86,ENE,78,0.0,0.0,87,0.00,,---,0.00,VWS V14.01,2013-05-22 04:19:00,
2013-05-22 00:24:00,66.4,62.7,29.87,ENE,78,0.0,0.0,88,0.00,,---,0.00,VWS V14.01,2013-05-22 04:24:00,
2013-05-22 00:29:00,66.3,62.6,29.88,ENE,78,0.0,0.0,88,0.00,,---,0.00,VWS V14.01,2013-05-22 04:29:00,
2013-05-22 00:34:00,66.1,62.5,29.88,ENE,78,0.0,0.0,88,0.00,,---,0.00,VWS V14.01,2013-05-22 04:34:00,
2013-05-22 00:39:00,66.0,62.3,29.88,ENE,78,0.0,0.0,88,0.00,,---,0.00,VWS V14.01,2013-05-22 04:39:00,
2013-05-22 00:45:00,65.8,62.5,29.87,ENE,78,0.0,0.0,89,0.00,,---,0.00,VWS V14.01,2013-05-22 04:45:00,
2013-05-22 00:50:00,65.6,62.3,29.87,ENE,78,0.0,0.0,89,0.00,,---,0.00,VWS V14.01,2013-05-22 04:50:00,
2013-05-22 00:55:00,65.5,62.2,29.88,ENE,78,0.0,0.0,89,0.00,,---,0.00,VWS V14.01,2013-05-22 04:55:00,
2013-05-22 01:00:00,65.3,62.0,29.88,ENE,78,0.0,0.0,89,0.00,,---,0.00,VWS V14.01,2013-05-22 05:00:00,
2013-05-22 01:05:00,65.2,61.9,29.88,ENE,78,0.0,0.0,89,0.00,,---,0.00,VWS V14.01,2013-05-22 05:05:00,
2013-05-22 01:11:00,65.0,62.0,29.89,ENE,78,0.0,0.0,90,0.00,,---,0.00,VWS V14.01,2013-05-22 05:11:00,
2013-05-22 01:16:00,64.8,61.8,29.88,ENE,78,0.0,0.0,90,0.00,,---,0.00,VWS V14.01,2013-05-22 05:16:00,
2013-05-22 01:21:00,64.7,62.0,29.89,ENE,78,0.0,0.0,91,0.00,,---,0.00,VWS V14.01,2013-05-22 05:21:00,
2013-05-22 01:26:00,64.7,62.0,29.89,SSE,154,0.0,0.0,91,0.00,,---,0.00,VWS V14.01,2013-05-22 05:26:00,
2013-05-22 01:31:00,64.7,62.0,29.88,SSE,154,0.0,0.0,91,0.00,,---,0.00,VWS V14.01,2013-05-22 05:31:00,
2013-05-22 01:36:00,64.5,62.1,29.87,SSE,154,0.0,0.0,92,0.00,,---,0.00,VWS V14.01,2013-05-22 05:36:00,
2013-05-22 01:41:00,64.5,62.1,29.88,ENE,78,0.0,0.0,92,0.00,,---,0.00,VWS V14.01,2013-05-22 05:41:00,
2013-05-22 01:46:00,64.5,62.1,29.88,ENE,78,0.0,0.0,92,0.00,,---,0.00,VWS V14.01,2013-05-22 05:46:00,
2013-05-22 01:52:00,64.5,62.1,29.88,ENE,78,0.0,0.0,92,0.00,,---,0.00,VWS V14.01,2013-05-22 05:52:00,
2013-05-22 01:57:00,64.5,62.1,29.88,ENE,78,0.0,0.0,92,0.00,,---,0.00,VWS V14.01,2013-05-22 05:57:00,
2013-05-22 02:02:00,64.5,62.1,29.88,ENE,78,0.0,0.0,92,0.00,,---,0.00,VWS V14.01,2013-05-22 06:02:00,
2013-05-22 02:07:00,64.5,62.1,29.88,ENE,78,0.0,0.0,92,0.00,,---,0.00,VWS V14.01,2013-05-22 06:07:00,
2013-05-22 02:12:00,64.5,62.1,29.88,ENE,78,0.0,0.0,92,0.00,,---,0.00,VWS V14.01,2013-05-22 06:12:00,
2013-05-22 02:17:00,64.5,62.1,29.88,ENE,78,0.0,0.0,92,0.00,,---,0.00,VWS V14.01,2013-05-22 06:17:00,
2013-05-22 02:22:00,64.5,62.1,29.87,ENE,78,0.0,0.0,92,0.00,,---,0.00,VWS V14.01,2013-05-22 06:22:00,
2013-05-22 02:28:00,64.7,62.6,29.88,ENE,78,0.0,0.0,93,0.00,,---,0.00,VWS V14.01,2013-05-22 06:28:00,
2013-05-22 02:33:00,64.7,62.6,29.87,ENE,78,0.0,0.0,93,0.00,,---,0.00,VWS V14.01,2013-05-22 06:33:00,
2013-05-22 02:38:00,64.8,62.7,29.88,SSE,149,0.0,0.0,93,0.00,,---,0.00,VWS V14.01,2013-05-22 06:38:00,
2013-05-22 02:43:00,64.8,62.4,29.87,South,170,0.0,3.0,92,0.00,,---,0.00,VWS V14.01,2013-05-22 06:43:00,
2013-05-22 02:48:00,64.5,62.1,29.87,South,170,0.0,0.0,92,0.00,,---,0.00,VWS V14.01,2013-05-22 06:48:00,
2013-05-22 02:53:00,64.2,61.5,29.87,SSW,207,0.0,0.0,91,0.00,,---,0.00,VWS V14.01,2013-05-22 06:53:00,
2013-05-22 02:58:00,63.9,60.6,29.88,NW,309,0.0,0.0,89,0.00,,---,0.00,VWS V14.01,2013-05-22 06:58:00,
2013-05-22 03:03:00,63.5,60.2,29.88,NW,309,0.0,0.0,89,0.00,,---,0.00,VWS V14.01,2013-05-22 07:03:00,
2013-05-22 03:08:00,63.2,59.6,29.88,NW,309,0.0,0.0,88,0.00,,---,0.00,VWS V14.01,2013-05-22 07:08:00,
2013-05-22 03:13:00,63.1,59.5,29.88,North,360,0.0,2.0,88,0.00,,---,0.00,VWS V14.01,2013-05-22 07:13:00,
2013-05-22 03:18:00,62.6,58.4,29.89,NW,305,0.0,0.0,86,0.00,,---,0.00,VWS V14.01,2013-05-22 07:18:00,
2013-05-22 03:23:00,62.3,58.4,29.89,NW,305,0.0,0.0,87,0.00,,---,0.00,VWS V14.01,2013-05-22 07:23:00,
2013-05-22 03:29:00,62.0,58.1,29.89,NW,305,0.0,0.0,87,0.00,,---,0.00,VWS V14.01,2013-05-22 07:29:00,
2013-05-22 03:35:00,61.6,57.4,29.90,NW,325,0.0,0.0,86,0.00,,---,0.00,VWS V14.01,2013-05-22 07:35:00,
2013-05-22 03:40:00,61.3,57.4,29.90,NW,325,1.0,1.0,87,0.00,,---,0.00,VWS V14.01,2013-05-22 07:40:00,
2013-05-22 03:46:00,61.2,57.3,29.90,NW,325,0.0,0.0,87,0.00,,---,0.00,VWS V14.01,2013-05-22 07:46:00,
2013-05-22 03:51:00,60.9,56.7,29.90,WNW,302,0.0,0.0,86,0.00,,---,0.00,VWS V14.01,2013-05-22 07:51:00,
2013-05-22 03:56:00,60.5,56.3,29.90,NNW,330,1.0,1.0,86,0.00,,---,0.00,VWS V14.01,2013-05-22 07:56:00,
2013-05-22 04:01:00,59.9,55.4,29.90,SW,225,0.0,0.0,85,0.00,,---,0.00,VWS V14.01,2013-05-22 08:01:00,
2013-05-22 04:06:00,59.3,55.1,29.89,NW,322,0.0,0.0,86,0.00,,---,0.00,VWS V14.01,2013-05-22 08:06:00,
2013-05-22 04:11:00,58.9,55.0,29.89,North,355,0.0,0.0,87,0.00,,---,0.00,VWS V14.01,2013-05-22 08:11:00,
2013-05-22 04:17:00,58.4,54.9,29.89,SSW,196,0.0,0.0,88,0.00,,---,0.00,VWS V14.01,2013-05-22 08:17:00,
2013-05-22 04:22:00,58.1,54.9,29.89,SSW,196,3.0,3.0,89,0.00,,---,0.00,VWS V14.01,2013-05-22 08:22:00,
2013-05-22 04:27:00,58.0,54.8,29.90,SW,227,0.0,0.0,89,0.00,,---,0.00,VWS V14.01,2013-05-22 08:27:00,
2013-05-22 04:33:00,57.6,54.7,29.91,NNW,327,0.0,2.0,90,0.00,,---,0.00,VWS V14.01,2013-05-22 08:33:00,
2013-05-22 04:39:00,57.5,54.6,29.92,NW,324,0.0,0.0,90,0.00,,---,0.00,VWS V14.01,2013-05-22 08:39:00,
2013-05-22 04:45:00,57.3,54.7,29.93,NNW,328,0.0,1.0,91,0.00,,---,0.00,VWS V14.01,2013-05-22 08:45:00,
2013-05-22 04:50:00,57.3,54.7,29.91,WNW,301,0.0,0.0,91,0.00,,---,0.00,VWS V14.01,2013-05-22 08:50:00,
2013-05-22 04:55:00,57.0,54.4,29.93,WNW,301,0.0,0.0,91,0.02,,---,0.02,VWS V14.01,2013-05-22 08:55:00,
2013-05-22 05:00:00,56.9,54.3,29.91,SSW,194,0.0,1.0,91,0.19,,---,0.19,VWS V14.01,2013-05-22 09:00:00,
2013-05-22 05:06:00,56.6,54.3,29.92,SW,217,0.0,0.0,92,0.28,,---,0.28,VWS V14.01,2013-05-22 09:06:00,
2013-05-22 05:11:00,56.5,54.2,29.91,SW,217,0.0,0.0,92,0.29,,---,0.29,VWS V14.01,2013-05-22 09:11:00,
2013-05-22 05:16:00,56.5,54.2,29.90,SW,217,0.0,2.0,92,0.29,,---,0.29,VWS V14.01,2013-05-22 09:16:00,
2013-05-22 05:21:00,56.5,54.5,29.90,South,179,1.0,3.0,93,0.29,,---,0.29,VWS V14.01,2013-05-22 09:21:00,
2013-05-22 05:27:00,56.5,54.5,29.90,SSE,167,0.0,2.0,93,0.29,,---,0.29,VWS V14.01,2013-05-22 09:27:00,
2013-05-22 05:32:00,56.5,54.8,29.89,SSE,165,0.0,0.0,94,0.29,,---,0.29,VWS V14.01,2013-05-22 09:32:00,
2013-05-22 05:37:00,56.6,54.9,29.90,SSE,168,1.0,2.0,94,0.29,,---,0.29,VWS V14.01,2013-05-22 09:37:00,
2013-05-22 05:42:00,56.6,54.9,29.90,SSE,168,0.0,0.0,94,0.29,,---,0.29,VWS V14.01,2013-05-22 09:42:00,
2013-05-22 05:47:00,56.6,54.9,29.90,SSE,168,0.0,0.0,94,0.29,,---,0.29,VWS V14.01,2013-05-22 09:47:00,
2013-05-22 05:52:00,56.6,55.2,29.91,SSE,168,0.0,0.0,95,0.29,,---,0.29,VWS V14.01,2013-05-22 09:52:00,
2013-05-22 05:57:00,56.7,55.3,29.91,SSE,168,0.0,0.0,95,0.25,,---,0.29,VWS V14.01,2013-05-22 09:57:00,
2013-05-22 06:02:00,56.9,55.5,29.91,SSE,168,0.0,0.0,95,0.08,,---,0.29,VWS V14.01,2013-05-22 10:02:00,
2013-05-22 06:07:00,57.0,55.6,29.91,SSE,168,0.0,0.0,95,0.01,,---,0.29,VWS V14.01,2013-05-22 10:07:00,
2013-05-22 06:12:00,57.0,55.6,29.91,SSE,168,0.0,0.0,95,0.00,,---,0.29,VWS V14.01,2013-05-22 10:12:00,
2013-05-22 06:18:00,57.2,55.8,29.90,SSE,168,0.0,0.0,95,0.00,,---,0.29,VWS V14.01,2013-05-22 10:18:00,
2013-05-22 06:23:00,57.3,55.9,29.91,SSE,168,0.0,0.0,95,0.00,,---,0.29,VWS V14.01,2013-05-22 10:23:00,
2013-05-22 06:28:00,57.3,56.2,29.91,SSE,168,0.0,0.0,96,0.00,,---,0.29,VWS V14.01,2013-05-22 10:28:00,
2013-05-22 06:33:00,57.5,56.4,29.91,SSE,168,0.0,0.0,96,0.00,,---,0.29,VWS V14.01,2013-05-22 10:33:00,
2013-05-22 06:38:00,57.5,56.4,29.91,SSE,168,0.0,0.0,96,0.00,,---,0.29,VWS V14.01,2013-05-22 10:38:00,
2013-05-22 06:43:00,57.5,56.4,29.91,SSE,168,0.0,0.0,96,0.00,,---,0.29,VWS V14.01,2013-05-22 10:43:00,
2013-05-22 06:48:00,57.6,56.5,29.91,SSE,168,0.0,0.0,96,0.00,,---,0.29,VWS V14.01,2013-05-22 10:48:00,
2013-05-22 06:53:00,57.6,56.5,29.91,SSE,168,0.0,0.0,96,0.00,,---,0.29,VWS V14.01,2013-05-22 10:53:00,
2013-05-22 06:58:00,57.6,56.5,29.92,South,170,0.0,0.0,96,0.00,,---,0.29,VWS V14.01,2013-05-22 10:58:00,
2013-05-22 07:03:00,57.5,56.4,29.91,SSE,157,0.0,0.0,96,0.00,,---,0.29,VWS V14.01,2013-05-22 11:03:00,
2013-05-22 07:08:00,57.5,56.4,29.91,SSE,157,0.0,0.0,96,0.00,,---,0.29,VWS V14.01,2013-05-22 11:08:00,
2013-05-22 07:14:00,57.5,56.4,29.91,SSE,148,0.0,0.0,96,0.00,,---,0.29,VWS V14.01,2013-05-22 11:14:00,
2013-05-22 07:19:00,57.3,56.2,29.92,SSE,148,0.0,0.0,96,0.00,,---,0.29,VWS V14.01,2013-05-22 11:19:00,
2013-05-22 07:24:00,57.5,56.4,29.92,SSE,157,0.0,0.0,96,0.00,,---,0.29,VWS V14.01,2013-05-22 11:24:00,
2013-05-22 07:29:00,57.2,56.1,29.91,SSE,147,0.0,0.0,96,0.00,,---,0.29,VWS V14.01,2013-05-22 11:29:00,
2013-05-22 07:35:00,57.2,56.1,29.91,SSE,147,0.0,0.0,96,0.00,,---,0.29,VWS V14.01,2013-05-22 11:35:00,
2013-05-22 07:41:00,57.2,56.1,29.91,SSE,147,0.0,0.0,96,0.00,,---,0.29,VWS V14.01,2013-05-22 11:41:00,
2013-05-22 07:46:00,57.2,56.1,29.91,SSE,147,0.0,0.0,96,0.00,,---,0.29,VWS V14.01,2013-05-22 11:46:00,
2013-05-22 07:51:00,57.0,55.9,29.91,ESE,102,0.0,0.0,96,0.00,,---,0.29,VWS V14.01,2013-05-22 11:51:00,
2013-05-22 07:56:00,57.0,55.9,29.91,ESE,103,0.0,0.0,96,0.00,,---,0.29,VWS V14.01,2013-05-22 11:56:00,
2013-05-22 08:02:00,56.9,55.8,29.92,ESE,102,0.0,0.0,96,0.00,,---,0.29,VWS V14.01,2013-05-22 12:02:00,
2013-05-22 08:07:00,56.7,55.6,29.92,SE,145,0.0,0.0,96,0.00,,---,0.29,VWS V14.01,2013-05-22 12:07:00,
2013-05-22 08:13:00,56.6,55.5,29.92,SE,145,0.0,1.0,96,0.00,,---,0.29,VWS V14.01,2013-05-22 12:13:00,
2013-05-22 08:18:00,56.6,55.5,29.92,SSW,193,0.0,2.0,96,0.00,,---,0.29,VWS V14.01,2013-05-22 12:18:00,
2013-05-22 08:23:00,56.6,55.5,29.92,SSW,193,0.0,0.0,96,0.00,,---,0.29,VWS V14.01,2013-05-22 12:23:00,
2013-05-22 08:28:00,56.6,55.5,29.92,South,191,0.0,0.0,96,0.00,,---,0.29,VWS V14.01,2013-05-22 12:28:00,
2013-05-22 08:34:00,56.6,55.5,29.92,South,191,0.0,0.0,96,0.00,,---,0.29,VWS V14.01,2013-05-22 12:34:00,
2013-05-22 08:39:00,56.7,55.6,29.92,South,191,0.0,0.0,96,0.00,,---,0.29,VWS V14.01,2013-05-22 12:39:00,
2013-05-22 08:44:00,56.6,55.5,29.92,South,191,0.0,2.0,96,0.00,,---,0.29,VWS V14.01,2013-05-22 12:44:00,
2013-05-22 08:49:00,56.5,55.4,29.92,South,191,0.0,0.0,96,0.00,,---,0.29,VWS V14.01,2013-05-22 12:49:00,
2013-05-22 08:54:00,56.5,55.4,29.91,SSW,194,0.0,0.0,96,0.00,,---,0.29,VWS V14.01,2013-05-22 12:54:00,
2013-05-22 08:59:00,56.5,55.4,29.91,SSW,194,0.0,1.0,96,0.00,,---,0.29,VWS V14.01,2013-05-22 12:59:00,
2013-05-22 09:04:00,56.5,55.4,29.91,SSW,194,0.0,0.0,96,0.00,,---,0.29,VWS V14.01,2013-05-22 13:04:00,
2013-05-22 09:09:00,56.5,55.4,29.92,SSW,194,0.0,0.0,96,0.00,,---,0.29,VWS V14.01,2013-05-22 13:09:00,
2013-05-22 09:14:00,56.6,55.5,29.92,East,90,0.0,0.0,96,0.00,,---,0.29,VWS V14.01,2013-05-22 13:14:00,
2013-05-22 09:19:00,56.7,55.6,29.92,East,90,0.0,0.0,96,0.00,,---,0.29,VWS V14.01,2013-05-22 13:19:00,
2013-05-22 09:24:00,56.7,55.6,29.92,East,90,0.0,0.0,96,0.00,,---,0.29,VWS V14.01,2013-05-22 13:24:00,
2013-05-22 09:30:00,57.0,55.9,29.92,East,90,0.0,0.0,96,0.00,,---,0.29,VWS V14.01,2013-05-22 13:30:00,
2013-05-22 09:35:00,57.2,56.1,29.92,East,90,0.0,0.0,96,0.00,,---,0.29,VWS V14.01,2013-05-22 13:35:00,
2013-05-22 09:41:00,57.3,56.2,29.91,ESE,110,0.0,1.0,96,0.00,,---,0.29,VWS V14.01,2013-05-22 13:41:00,
2013-05-22 09:46:00,57.3,56.2,29.91,ESE,110,0.0,0.0,96,0.00,,---,0.29,VWS V14.01,2013-05-22 13:46:00,
2013-05-22 09:52:00,57.5,56.4,29.91,ESE,110,0.0,0.0,96,0.00,,---,0.29,VWS V14.01,2013-05-22 13:52:00,
2013-05-22 09:57:00,57.5,56.4,29.91,ESE,110,0.0,0.0,96,0.00,,---,0.29,VWS V14.01,2013-05-22 13:57:00,
2013-05-22 10:02:00,57.5,56.4,29.92,ESE,110,0.0,0.0,96,0.00,,---,0.29,VWS V14.01,2013-05-22 14:02:00,
2013-05-22 10:07:00,57.8,57.0,29.92,ESE,110,0.0,0.0,97,0.00,,---,0.29,VWS V14.01,2013-05-22 14:07:00,
2013-05-22 10:12:00,57.8,56.7,29.92,ESE,110,0.0,0.0,96,0.00,,---,0.29,VWS V14.01,2013-05-22 14:12:00,
2013-05-22 10:17:00,58.1,57.3,29.92,ESE,110,0.0,0.0,97,0.00,,---,0.29,VWS V14.01,2013-05-22 14:17:00,
2013-05-22 10:22:00,58.3,57.5,29.92,ESE,110,0.0,0.0,97,0.00,,---,0.29,VWS V14.01,2013-05-22 14:22:00,
2013-05-22 10:27:00,58.4,57.6,29.92,ESE,110,0.0,0.0,97,0.00,,---,0.29,VWS V14.01,2013-05-22 14:27:00,
2013-05-22 10:32:00,58.4,57.6,29.92,ESE,110,0.0,0.0,97,0.00,,---,0.29,VWS V14.01,2013-05-22 14:32:00,
2013-05-22 10:37:00,58.6,57.8,29.92,ESE,110,0.0,0.0,97,0.00,,---,0.29,VWS V14.01,2013-05-22 14:37:00,
2013-05-22 10:42:00,58.7,57.8,29.92,ESE,110,0.0,0.0,97,0.00,,---,0.29,VWS V14.01,2013-05-22 14:42:00,
2013-05-22 10:47:00,58.9,58.0,29.92,ESE,110,0.0,0.0,97,0.00,,---,0.29,VWS V14.01,2013-05-22 14:47:00,
2013-05-22 10:53:00,59.3,58.5,29.92,ESE,110,0.0,0.0,97,0.00,,---,0.29,VWS V14.01,2013-05-22 14:53:00,
2013-05-22 10:58:00,59.6,58.8,29.92,ESE,110,1.0,1.0,97,0.00,,---,0.29,VWS V14.01,2013-05-22 14:58:00,
2013-05-22 11:04:00,59.8,59.0,29.92,ESE,110,0.0,0.0,97,0.00,,---,0.29,VWS V14.01,2013-05-22 15:04:00,
2013-05-22 11:09:00,59.9,59.0,29.92,ESE,110,0.0,0.0,97,0.00,,---,0.29,VWS V14.01,2013-05-22 15:09:00,
2013-05-22 11:15:00,60.1,59.2,29.92,ESE,110,0.0,0.0,97,0.00,,---,0.29,VWS V14.01,2013-05-22 15:15:00,
2013-05-22 11:21:00,60.4,59.5,29.92,ESE,110,0.0,0.0,97,0.00,,---,0.29,VWS V14.01,2013-05-22 15:21:00,
2013-05-22 11:26:00,60.7,59.8,29.92,ESE,110,0.0,0.0,97,0.00,,---,0.29,VWS V14.01,2013-05-22 15:26:00,
2013-05-22 11:31:00,60.9,60.0,29.91,ESE,110,0.0,0.0,97,0.00,,---,0.29,VWS V14.01,2013-05-22 15:31:00,
2013-05-22 11:36:00,61.0,59.9,29.91,ESE,110,0.0,0.0,96,0.00,,---,0.29,VWS V14.01,2013-05-22 15:36:00,
2013-05-22 11:41:00,61.2,60.0,29.91,ESE,110,0.0,0.0,96,0.00,,---,0.29,VWS V14.01,2013-05-22 15:41:00,
2013-05-22 11:47:00,61.3,60.2,29.91,ESE,110,0.0,0.0,96,0.00,,---,0.29,VWS V14.01,2013-05-22 15:47:00,
2013-05-22 11:52:00,61.8,60.7,29.91,ESE,110,0.0,0.0,96,0.00,,---,0.29,VWS V14.01,2013-05-22 15:52:00,
2013-05-22 11:57:00,62.0,60.8,29.91,ESE,110,0.0,0.0,96,0.00,,---,0.29,VWS V14.01,2013-05-22 15:57:00,
2013-05-22 12:02:00,62.3,61.2,29.91,ESE,110,0.0,0.0,96,0.00,,---,0.29,VWS V14.01,2013-05-22 16:02:00,
2013-05-22 12:07:00,62.4,61.2,29.91,ESE,110,0.0,0.0,96,0.00,,---,0.29,VWS V14.01,2013-05-22 16:07:00,
2013-05-22 12:12:00,62.7,61.5,29.91,ESE,110,0.0,1.0,96,0.00,,---,0.29,VWS V14.01,2013-05-22 16:12:00,
2013-05-22 12:17:00,63.1,61.9,29.91,ESE,110,0.0,0.0,96,0.00,,---,0.29,VWS V14.01,2013-05-22 16:17:00,
2013-05-22 12:23:00,63.4,62.2,29.91,ESE,110,0.0,0.0,96,0.00,,---,0.29,VWS V14.01,2013-05-22 16:23:00,
2013-05-22 12:28:00,63.9,62.4,29.91,ESE,110,0.0,0.0,95,0.00,,---,0.29,VWS V14.01,2013-05-22 16:28:00,
2013-05-22 12:34:00,64.0,62.2,29.91,East,82,0.0,0.0,94,0.00,,---,0.29,VWS V14.01,2013-05-22 16:34:00,
2013-05-22 12:39:00,64.5,62.7,29.90,SSE,163,0.0,0.0,94,0.00,,---,0.29,VWS V14.01,2013-05-22 16:39:00,
2013-05-22 12:45:00,65.0,62.9,29.90,SSE,150,0.0,3.0,93,0.00,,---,0.29,VWS V14.01,2013-05-22 16:45:00,
2013-05-22 12:51:00,65.5,63.1,29.90,South,184,0.0,0.0,92,0.00,,---,0.29,VWS V14.01,2013-05-22 16:51:00,
2013-05-22 12:56:00,66.1,63.7,29.90,East,95,0.0,1.0,92,0.00,,---,0.29,VWS V14.01,2013-05-22 16:56:00,
2013-05-22 13:02:00,66.4,63.4,29.90,SSE,161,0.0,0.0,90,0.00,,---,0.29,VWS V14.01,2013-05-22 17:02:00,
2013-05-22 13:08:00,66.8,63.8,29.90,SSE,161,0.0,0.0,90,0.00,,---,0.29,VWS V14.01,2013-05-22 17:08:00,
2013-05-22 13:13:00,67.1,63.8,29.89,SSE,161,0.0,0.0,89,0.00,,---,0.29,VWS V14.01,2013-05-22 17:13:00,
2013-05-22 13:18:00,67.6,64.2,29.89,SSE,161,0.0,0.0,89,0.00,,---,0.29,VWS V14.01,2013-05-22 17:18:00,
2013-05-22 13:23:00,67.9,64.2,29.89,SSE,164,0.0,0.0,88,0.00,,---,0.29,VWS V14.01,2013-05-22 17:23:00,
2013-05-22 13:28:00,68.4,64.7,29.89,SSE,165,0.0,0.0,88,0.00,,---,0.29,VWS V14.01,2013-05-22 17:28:00,
2013-05-22 13:33:00,68.8,64.4,29.89,SSE,165,0.0,0.0,86,0.00,,---,0.29,VWS V14.01,2013-05-22 17:33:00,
2013-05-22 13:38:00,69.3,64.9,29.89,SSE,165,0.0,0.0,86,0.00,,---,0.29,VWS V14.01,2013-05-22 17:38:00,
2013-05-22 13:43:00,69.6,64.6,29.89,South,169,0.0,0.0,84,0.00,,---,0.29,VWS V14.01,2013-05-22 17:43:00,
2013-05-22 13:48:00,69.9,64.8,29.88,SSE,159,0.0,1.0,84,0.00,,---,0.29,VWS V14.01,2013-05-22 17:48:00,
2013-05-22 13:53:00,70.1,64.7,29.88,SSE,155,0.0,1.0,83,0.00,,---,0.29,VWS V14.01,2013-05-22 17:53:00,
2013-05-22 13:58:00,70.3,64.9,29.88,SSE,168,0.0,0.0,83,0.00,,---,0.29,VWS V14.01,2013-05-22 17:58:00,
2013-05-22 14:04:00,70.6,65.2,29.87,SE,136,0.0,1.0,83,0.00,,---,0.29,VWS V14.01,2013-05-22 18:04:00,
2013-05-22 14:09:00,70.9,64.8,29.87,SSE,157,0.0,0.0,81,0.00,,---,0.29,VWS V14.01,2013-05-22 18:09:00,
2013-05-22 14:14:00,71.3,65.5,29.87,SSE,159,0.0,0.0,82,0.00,,---,0.29,VWS V14.01,2013-05-22 18:14:00,
2013-05-22 14:19:00,71.8,65.3,29.87,ENE,75,0.0,0.0,80,0.00,,---,0.29,VWS V14.01,2013-05-22 18:19:00,
2013-05-22 14:24:00,72.5,65.6,29.87,South,177,0.0,1.0,79,0.00,,---,0.29,VWS V14.01,2013-05-22 18:24:00,
2013-05-22 14:29:00,72.8,65.6,29.87,SSW,192,0.0,0.0,78,0.00,,---,0.29,VWS V14.01,2013-05-22 18:29:00,
2013-05-22 14:34:00,73.7,67.2,29.87,South,183,0.0,1.0,80,0.00,,---,0.29,VWS V14.01,2013-05-22 18:34:00,
2013-05-22 14:39:00,74.2,66.2,29.87,South,183,0.0,0.0,76,0.00,,---,0.29,VWS V14.01,2013-05-22 18:39:00,
2013-05-22 14:44:00,74.4,66.0,29.87,South,183,0.0,0.0,75,0.00,,---,0.29,VWS V14.01,2013-05-22 18:44:00,
2013-05-22 14:49:00,74.4,66.0,29.87,South,183,0.0,0.0,75,0.00,,---,0.29,VWS V14.01,2013-05-22 18:49:00,
2013-05-22 14:54:00,74.6,66.5,29.87,South,183,0.0,0.0,76,0.00,,---,0.29,VWS V14.01,2013-05-22 18:54:00,
2013-05-22 15:00:00,74.9,66.4,29.87,SW,226,0.0,1.0,75,0.00,,---,0.29,VWS V14.01,2013-05-22 19:00:00,
2013-05-22 15:06:00,74.9,66.4,29.86,SW,227,0.0,0.0,75,0.00,,---,0.29,VWS V14.01,2013-05-22 19:06:00,
2013-05-22 15:11:00,75.4,66.2,29.86,South,176,1.0,1.0,73,0.00,,---,0.29,VWS V14.01,2013-05-22 19:11:00,
2013-05-22 15:16:00,75.6,66.3,29.85,SSW,206,1.0,2.0,73,0.00,,---,0.29,VWS V14.01,2013-05-22 19:16:00,
2013-05-22 15:21:00,75.6,65.5,29.85,SSE,167,0.0,2.0,71,0.00,,---,0.29,VWS V14.01,2013-05-22 19:21:00,
2013-05-22 15:26:00,75.6,66.3,29.85,SSE,166,0.0,0.0,73,0.00,,---,0.29,VWS V14.01,2013-05-22 19:26:00,
2013-05-22 15:31:00,75.6,66.7,29.86,East,98,0.0,0.0,74,0.00,,---,0.29,VWS V14.01,2013-05-22 19:31:00,
2013-05-22 15:36:00,75.6,65.9,29.85,SW,214,0.0,1.0,72,0.00,,---,0.29,VWS V14.01,2013-05-22 19:36:00,
2013-05-22 15:41:00,76.0,66.7,29.85,SSE,157,0.0,2.0,73,0.00,,---,0.29,VWS V14.01,2013-05-22 19:41:00,
2013-05-22 15:46:00,76.5,66.8,29.85,South,178,1.0,1.0,72,0.00,,---,0.29,VWS V14.01,2013-05-22 19:46:00,
2013-05-22 15:52:00,76.5,66.4,29.86,South,186,0.0,0.0,71,0.00,,---,0.29,VWS V14.01,2013-05-22 19:52:00,
2013-05-22 15:57:00,76.5,66.4,29.86,NW,324,0.0,1.0,71,0.00,,---,0.29,VWS V14.01,2013-05-22 19:57:00,
2013-05-22 16:02:00,76.7,65.8,29.85,SSE,166,0.0,1.0,69,0.00,,---,0.29,VWS V14.01,2013-05-22 20:02:00,
2013-05-22 16:07:00,76.7,66.6,29.86,SSW,211,0.0,1.0,71,0.00,,---,0.29,VWS V14.01,2013-05-22 20:07:00,
2013-05-22 16:12:00,76.8,65.9,29.86,ENE,63,0.0,1.0,69,0.00,,---,0.29,VWS V14.01,2013-05-22 20:12:00,
2013-05-22 16:17:00,77.0,66.9,29.85,SSW,203,0.0,5.0,71,0.00,,---,0.29,VWS V14.01,2013-05-22 20:17:00,
2013-05-22 16:22:00,77.0,66.5,29.85,South,191,0.0,1.0,70,0.00,,---,0.29,VWS V14.01,2013-05-22 20:22:00,
2013-05-22 16:27:00,77.0,66.1,29.85,ENE,59,1.0,2.0,69,0.00,,---,0.29,VWS V14.01,2013-05-22 20:27:00,
2013-05-22 16:32:00,76.7,65.8,29.85,SSW,207,0.0,0.0,69,0.00,,---,0.29,VWS V14.01,2013-05-22 20:32:00,
2013-05-22 16:37:00,76.3,66.2,29.85,East,94,0.0,3.0,71,0.00,,---,0.29,VWS V14.01,2013-05-22 20:37:00,
2013-05-22 16:43:00,76.7,65.8,29.85,SSE,157,1.0,1.0,69,0.00,,---,0.29,VWS V14.01,2013-05-22 20:43:00,
2013-05-22 16:48:00,77.0,66.1,29.85,SW,219,0.0,2.0,69,0.00,,---,0.29,VWS V14.01,2013-05-22 20:48:00,
2013-05-22 16:53:00,77.2,66.7,29.84,SSE,161,0.0,1.0,70,0.00,,---,0.29,VWS V14.01,2013-05-22 20:53:00,
2013-05-22 16:58:00,77.2,66.7,29.85,WSW,240,0.0,2.0,70,0.00,,---,0.29,VWS V14.01,2013-05-22 20:58:00,
2013-05-22 17:03:00,77.2,67.1,29.85,SSE,159,0.0,4.0,71,0.00,,---,0.29,VWS V14.01,2013-05-22 21:03:00,
2013-05-22 17:08:00,77.2,67.1,29.85,SE,135,0.0,2.0,71,0.00,,---,0.29,VWS V14.01,2013-05-22 21:08:00,
2013-05-22 17:13:00,77.2,67.5,29.84,South,182,0.0,1.0,72,0.00,,---,0.29,VWS V14.01,2013-05-22 21:13:00,
2013-05-22 17:18:00,77.0,67.7,29.84,South,169,2.0,2.0,73,0.00,,---,0.29,VWS V14.01,2013-05-22 21:18:00,
2013-05-22 17:23:00,76.7,67.8,29.84,West,272,0.0,2.0,74,0.00,,---,0.29,VWS V14.01,2013-05-22 21:23:00,
2013-05-22 17:28:00,76.3,67.4,29.84,NNE,19,0.0,2.0,74,0.00,,---,0.29,VWS V14.01,2013-05-22 21:28:00,
2013-05-22 17:33:00,75.6,67.5,29.84,South,174,0.0,0.0,76,0.00,,---,0.29,VWS V14.01,2013-05-22 21:33:00,
2013-05-22 17:38:00,74.9,67.2,29.84,SSE,150,3.0,6.0,77,0.00,,---,0.29,VWS V14.01,2013-05-22 21:38:00,
2013-05-22 17:44:00,74.2,67.6,29.84,West,270,0.0,0.0,80,0.00,,---,0.29,VWS V14.01,2013-05-22 21:44:00,
2013-05-22 17:49:00,73.9,67.7,29.84,South,187,1.0,4.0,81,0.00,,---,0.29,VWS V14.01,2013-05-22 21:49:00,
2013-05-22 17:55:00,73.5,67.3,29.84,SSE,157,0.0,0.0,81,0.00,,---,0.29,VWS V14.01,2013-05-22 21:55:00,
2013-05-22 18:01:00,73.3,67.5,29.84,SSE,159,0.0,0.0,82,0.00,,---,0.29,VWS V14.01,2013-05-22 22:01:00,
2013-05-22 18:06:00,73.2,67.4,29.84,SSE,161,3.0,5.0,82,0.00,,---,0.29,VWS V14.01,2013-05-22 22:06:00,
2013-05-22 18:11:00,72.8,66.6,29.84,South,184,0.0,1.0,81,0.00,,---,0.29,VWS V14.01,2013-05-22 22:11:00,
2013-05-22 18:17:00,72.5,66.0,29.84,SW,234,1.0,6.0,80,0.00,,---,0.29,VWS V14.01,2013-05-22 22:17:00,
2013-05-22 18:23:00,72.3,65.8,29.84,South,173,0.0,0.0,80,0.00,,---,0.29,VWS V14.01,2013-05-22 22:23:00,
2013-05-22 18:28:00,72.1,65.6,29.83,SSE,156,4.0,5.0,80,0.00,,---,0.29,VWS V14.01,2013-05-22 22:28:00,
2013-05-22 18:34:00,72.0,65.1,29.83,SSE,153,0.0,0.0,79,0.00,,---,0.29,VWS V14.01,2013-05-22 22:34:00,
2013-05-22 18:40:00,71.6,64.8,29.84,SSE,151,0.0,0.0,79,0.00,,---,0.29,VWS V14.01,2013-05-22 22:40:00,
2013-05-22 18:45:00,71.5,64.3,29.84,SSE,157,0.0,0.0,78,0.00,,---,0.29,VWS V14.01,2013-05-22 22:45:00,
2013-05-22 18:51:00,71.1,63.9,29.84,East,80,0.0,0.0,78,0.00,,---,0.29,VWS V14.01,2013-05-22 22:51:00,
2013-05-22 18:56:00,70.8,64.0,29.85,East,81,1.0,3.0,79,0.00,,---,0.29,VWS V14.01,2013-05-22 22:56:00,
2013-05-22 19:02:00,70.4,63.9,29.85,SSE,147,0.0,0.0,80,0.00,,---,0.29,VWS V14.01,2013-05-22 23:02:00,
2013-05-22 19:07:00,70.1,63.7,29.85,South,179,0.0,0.0,80,0.00,,---,0.29,VWS V14.01,2013-05-22 23:07:00,
2013-05-22 19:12:00,69.8,63.4,29.85,South,179,0.0,0.0,80,0.00,,---,0.29,VWS V14.01,2013-05-22 23:12:00,
2013-05-22 19:17:00,69.4,63.0,29.86,South,179,0.0,0.0,80,0.00,,---,0.29,VWS V14.01,2013-05-22 23:17:00,
2013-05-22 19:22:00,69.3,63.2,29.86,SSE,163,0.0,3.0,81,0.00,,---,0.29,VWS V14.01,2013-05-22 23:22:00,
2013-05-22 19:27:00,68.9,62.8,29.86,SSE,163,0.0,0.0,81,0.00,,---,0.29,VWS V14.01,2013-05-22 23:27:00,
2013-05-22 19:33:00,68.8,62.7,29.85,South,179,0.0,0.0,81,0.00,,---,0.29,VWS V14.01,2013-05-22 23:33:00,
2013-05-22 19:38:00,68.6,62.9,29.86,South,179,0.0,0.0,82,0.00,,---,0.29,VWS V14.01,2013-05-22 23:38:00,
2013-05-22 19:43:00,68.4,62.7,29.86,South,179,0.0,0.0,82,0.00,,---,0.29,VWS V14.01,2013-05-22 23:43:00,
2013-05-22 19:48:00,68.1,62.8,29.86,South,179,0.0,0.0,83,0.00,,---,0.29,VWS V14.01,2013-05-22 23:48:00,
2013-05-22 19:53:00,67.9,62.5,29.86,South,179,0.0,0.0,83,0.00,,---,0.29,VWS V14.01,2013-05-22 23:53:00,
2013-05-22 19:58:00,67.9,62.9,29.86,South,179,0.0,0.0,84,0.00,,---,0.29,VWS V14.01,2013-05-22 23:58:00,
2013-05-22 20:03:00,67.8,62.8,29.86,South,179,0.0,0.0,84,0.00,,---,0.29,VWS V14.01,2013-05-23 00:03:00,
2013-05-22 20:08:00,67.8,62.8,29.86,ESE,108,0.0,0.0,84,0.00,,---,0.29,VWS V14.01,2013-05-23 00:08:00,
2013-05-22 20:13:00,67.8,62.8,29.86,ESE,108,0.0,0.0,84,0.00,,---,0.29,VWS V14.01,2013-05-23 00:13:00,
2013-05-22 20:18:00,67.6,62.9,29.85,ESE,108,0.0,0.0,85,0.00,,---,0.29,VWS V14.01,2013-05-23 00:18:00,
2013-05-22 20:23:00,67.4,62.7,29.85,ESE,108,0.0,0.0,85,0.00,,---,0.29,VWS V14.01,2013-05-23 00:23:00,
2013-05-22 20:28:00,67.4,62.7,29.85,ESE,108,0.0,0.0,85,0.00,,---,0.29,VWS V14.01,2013-05-23 00:28:00,
2013-05-22 20:33:00,67.3,63.0,29.85,ESE,108,0.0,0.0,86,0.00,,---,0.29,VWS V14.01,2013-05-23 00:33:00,
2013-05-22 20:38:00,67.3,63.0,29.86,ESE,108,0.0,1.0,86,0.00,,---,0.29,VWS V14.01,2013-05-23 00:38:00,
2013-05-22 20:43:00,67.3,63.3,29.86,ESE,108,0.0,0.0,87,0.00,,---,0.29,VWS V14.01,2013-05-23 00:43:00,
2013-05-22 20:49:00,67.1,63.1,29.86,ESE,108,0.0,0.0,87,0.00,,---,0.29,VWS V14.01,2013-05-23 00:49:00,
2013-05-22 20:54:00,67.1,63.1,29.86,ESE,108,0.0,0.0,87,0.00,,---,0.29,VWS V14.01,2013-05-23 00:54:00,
2013-05-22 20:59:00,66.9,62.9,29.86,ESE,108,0.0,0.0,87,0.00,,---,0.29,VWS V14.01,2013-05-23 00:59:00,
2013-05-22 21:04:00,66.8,62.8,29.86,NNE,24,1.0,1.0,87,0.00,,---,0.29,VWS V14.01,2013-05-23 01:04:00,
2013-05-22 21:09:00,66.6,62.6,29.86,North,355,0.0,0.0,87,0.00,,---,0.29,VWS V14.01,2013-05-23 01:09:00,
2013-05-22 21:14:00,66.4,62.7,29.86,North,355,0.0,0.0,88,0.00,,---,0.29,VWS V14.01,2013-05-23 01:14:00,
2013-05-22 21:19:00,66.3,62.6,29.87,SW,234,0.0,0.0,88,0.00,,---,0.29,VWS V14.01,2013-05-23 01:19:00,
2013-05-22 21:24:00,66.1,62.5,29.87,SW,234,0.0,0.0,88,0.00,,---,0.29,VWS V14.01,2013-05-23 01:24:00,
2013-05-22 21:29:00,66.1,62.8,29.88,SW,234,0.0,0.0,89,0.00,,---,0.29,VWS V14.01,2013-05-23 01:29:00,
2013-05-22 21:34:00,66.0,62.7,29.88,SW,234,0.0,1.0,89,0.00,,---,0.29,VWS V14.01,2013-05-23 01:34:00,
2013-05-22 21:40:00,65.8,62.5,29.88,SW,234,0.0,0.0,89,0.00,,---,0.29,VWS V14.01,2013-05-23 01:40:00,
2013-05-22 21:45:00,65.6,62.3,29.88,SW,230,0.0,0.0,89,0.00,,---,0.29,VWS V14.01,2013-05-23 01:45:00,
2013-05-22 21:50:00,65.5,62.5,29.88,SW,226,0.0,0.0,90,0.00,,---,0.29,VWS V14.01,2013-05-23 01:50:00,
2013-05-22 21:55:00,65.5,62.5,29.88,SW,226,0.0,0.0,90,0.00,,---,0.29,VWS V14.01,2013-05-23 01:55:00,
2013-05-22 22:00:00,65.5,62.5,29.88,SW,226,0.0,0.0,90,0.00,,---,0.29,VWS V14.01,2013-05-23 02:00:00,
2013-05-22 22:05:00,65.3,62.3,29.89,SW,226,0.0,0.0,90,0.00,,---,0.29,VWS V14.01,2013-05-23 02:05:00,
2013-05-22 22:11:00,65.3,62.3,29.89,SW,226,0.0,0.0,90,0.00,,---,0.29,VWS V14.01,2013-05-23 02:11:00,
2013-05-22 22:16:00,65.2,62.5,29.88,SW,226,0.0,0.0,91,0.00,,---,0.29,VWS V14.01,2013-05-23 02:16:00,
2013-05-22 22:21:00,65.2,62.5,29.88,SW,226,0.0,0.0,91,0.00,,---,0.29,VWS V14.01,2013-05-23 02:21:00,
2013-05-22 22:26:00,65.2,62.5,29.88,SW,226,0.0,0.0,91,0.00,,---,0.29,VWS V14.01,2013-05-23 02:26:00,
2013-05-22 22:32:00,65.0,62.3,29.88,SW,226,0.0,0.0,91,0.00,,---,0.29,VWS V14.01,2013-05-23 02:32:00,
2013-05-22 22:37:00,65.0,62.3,29.88,SW,226,0.0,0.0,91,0.00,,---,0.29,VWS V14.01,2013-05-23 02:37:00,
2013-05-22 22:42:00,64.8,62.1,29.88,SW,226,0.0,0.0,91,0.00,,---,0.29,VWS V14.01,2013-05-23 02:42:00,
2013-05-22 22:48:00,64.8,62.1,29.89,SW,226,0.0,0.0,91,0.00,,---,0.29,VWS V14.01,2013-05-23 02:48:00,
2013-05-22 22:53:00,64.7,62.0,29.88,SW,226,0.0,0.0,91,0.00,,---,0.29,VWS V14.01,2013-05-23 02:53:00,
2013-05-22 22:59:00,64.7,62.3,29.88,SW,226,0.0,0.0,92,0.00,,---,0.29,VWS V14.01,2013-05-23 02:59:00,
2013-05-22 23:04:00,64.7,62.3,29.89,SW,226,0.0,0.0,92,0.00,,---,0.29,VWS V14.01,2013-05-23 03:04:00,
2013-05-22 23:09:00,64.7,62.3,29.88,SW,226,0.0,0.0,92,0.00,,---,0.29,VWS V14.01,2013-05-23 03:09:00,
2013-05-22 23:14:00,64.5,62.1,29.88,SW,226,0.0,0.0,92,0.00,,---,0.29,VWS V14.01,2013-05-23 03:14:00,
2013-05-22 23:19:00,64.5,62.1,29.88,SW,226,0.0,0.0,92,0.00,,---,0.29,VWS V14.01,2013-05-23 03:19:00,
2013-05-22 23:24:00,64.5,62.1,29.87,SW,226,0.0,0.0,92,0.00,,---,0.29,VWS V14.01,2013-05-23 03:24:00,
2013-05-22 23:29:00,64.3,61.9,29.87,SW,226,0.0,0.0,92,0.00,,---,0.29,VWS V14.01,2013-05-23 03:29:00,
2013-05-22 23:34:00,64.3,61.9,29.87,SW,226,0.0,0.0,92,0.00,,---,0.29,VWS V14.01,2013-05-23 03:34:00,
2013-05-22 23:39:00,64.2,61.8,29.87,SW,226,0.0,0.0,92,0.00,,---,0.29,VWS V14.01,2013-05-23 03:39:00,
2013-05-22 23:44:00,64.2,61.8,29.87,SW,226,0.0,0.0,92,0.00,,---,0.29,VWS V14.01,2013-05-23 03:44:00,
2013-05-22 23:49:00,64.0,61.6,29.87,SW,226,0.0,0.0,92,0.00,,---,0.29,VWS V14.01,2013-05-23 03:49:00,
2013-05-22 23:54:00,64.0,61.6,29.87,SW,220,0.0,0.0,92,0.00,,---,0.29,VWS V14.01,2013-05-23 03:54:00,
2013-05-22 23:59:00,63.9,61.8,29.87,SW,220,0.0,0.0,93,0.00,,---,0.00,VWS V14.01,2013-05-23 03:59:00,